Location: Central Falls
(41.8900°N, 71.3929°W)
Time: 22:01:22
(UTC+00:00)

Courier 1B - All Passes

Search period start: 06 December 2023 00:00
Search period end: 16 December 2023 00:00
Orbit: 962 x 1208 km, 28.3° (Epoch: 06 December)

Date Brightness Start Highest point End Pass type
(mag) Time Alt. Az. Time Alt. Az. Time Alt. Az.
06 Dec - 13:38:51 10° SSW 13:43:38 20° SSE 13:48:17 10° ESE daylight
06 Dec - 15:31:32 10° SW 15:36:44 24° S 15:41:49 10° SE daylight
06 Dec - 17:25:36 10° SW 17:29:45 18° SSW 17:33:53 10° SSE daylight
07 Dec - 12:45:36 10° SSW 12:50:04 18° SSE 12:54:24 10° ESE daylight
07 Dec - 14:37:51 10° SW 14:43:10 25° S 14:48:19 10° SE daylight
07 Dec - 16:31:34 10° WSW 16:36:14 20° SSW 16:40:49 10° SSE daylight
08 Dec - 11:52:34 10° SSW 11:56:29 15° SSE 12:00:17 10° SE daylight
08 Dec - 13:44:13 10° SW 13:49:35 24° S 13:54:44 10° ESE daylight
08 Dec - 15:37:39 10° WSW 15:42:41 23° S 15:47:36 10° SE daylight
08 Dec - 17:33:01 10° SW 17:35:36 12° SSW 17:38:11 10° S daylight
09 Dec - 10:59:55 10° S 11:02:53 13° SSE 11:05:47 10° SE visible
09 Dec - 12:50:39 10° SW 12:55:58 23° S 13:01:05 10° ESE daylight
09 Dec - 14:43:46 10° WSW 14:49:07 25° S 14:54:17 10° SE daylight
09 Dec - 16:38:22 10° SW 16:42:07 16° SSW 16:45:48 10° SSE daylight
10 Dec - 11:57:11 10° SSW 12:02:21 21° SSE 12:07:19 10° ESE daylight
10 Dec - 13:49:57 10° SW 13:55:32 26° S 14:00:53 10° SE daylight
10 Dec - 15:44:05 10° WSW 15:48:35 19° SSW 15:52:59 10° SSE daylight
11 Dec - 11:03:51 10° SSW 11:08:43 19° SSE 11:13:24 10° ESE visible
11 Dec - 12:56:11 10° SW 13:01:54 26° S 13:07:22 10° SE daylight
11 Dec - 14:49:58 10° WSW 14:55:03 22° SSW 14:59:56 10° SE daylight
11 Dec - 16:46:58 10° SW 16:47:54 10° SSW 16:48:50 10° SSW daylight
12 Dec - 10:10:46 10° SSW 10:15:04 16° SSE 10:19:15 10° SE visible
12 Dec - 12:02:28 10° SW 12:08:15 25° S 12:13:46 10° ESE daylight
12 Dec - 13:55:58 10° WSW 14:01:27 24° S 14:06:43 10° SE daylight
12 Dec - 15:51:12 10° SW 15:54:25 14° SSW 15:57:35 10° S daylight
13 Dec - 09:18:07 10° S 09:21:25 13° SSE 09:24:41 10° SE visible
13 Dec - 11:08:51 10° SW 11:14:35 24° S 11:20:04 10° ESE visible
13 Dec - 13:02:02 10° WSW 13:07:50 26° S 13:13:23 10° SE daylight
13 Dec - 14:56:35 10° WSW 15:00:54 17° SSW 15:05:04 10° SSE daylight
14 Dec - 08:26:55 10° SSE 08:27:47 10° SSE 08:28:39 10° SSE visible
14 Dec - 10:15:21 10° SSW 10:20:54 22° SSE 10:26:14 10° ESE visible
14 Dec - 12:08:08 10° SW 12:14:11 27° S 12:19:55 10° SE daylight
14 Dec - 14:02:17 10° WSW 14:07:20 21° SSW 14:12:11 10° SSE daylight
15 Dec - 09:22:03 10° SSW 09:27:12 19° SSE 09:32:13 10° ESE visible
15 Dec - 11:14:20 10° SW 11:20:28 27° S 11:26:21 10° ESE visible
15 Dec - 13:08:08 10° WSW 13:13:44 24° SSW 13:19:04 10° SE daylight
15 Dec - 15:04:15 10° SW 15:06:40 12° SSW 15:09:03 10° S daylight
